Creston, IA

9:31 AM CDT on March 27, 2017 (GMT -0500)
Creston Municipal

Weather History for KCSQ - January, 2014

Change the Weather History Date:

Thursday, January 23, 2014

  Actual Average Record
Temperature  
Mean Temperature 2 °F -  
Max Temperature 10 °F 35 °F 58 °F (1981)
Min Temperature -7 °F 15 °F -21 °F (1963)
Degree Days  
Heating Degree Days 64    
Moisture  
Dew Point -12 °F    
Average Humidity 58    
Maximum Humidity 71    
Minimum Humidity 41    
Precipitation  
Precipitation 0.00 in - - ()
Sea Level Pressure  
Sea Level Pressure 30.64 in    
Wind  
Wind Speed 14 mph (WNW)    
Max Wind Speed 18 mph    
Max Gust Speed 28 mph    
Visibility 10 miles    
Events      
Averages and records for this station are not official NWS values.
T = Trace of Precipitation, MM = Missing Value Source: NWS Daily Summary

Daily Weather History Graph

Daily Weather History Graph

Search for Another Location

Airport or City:

Trip Planner

Search our weather history database for the weather conditions in past years. The results will help you decide how hot, cold, wet, or windy it might be!

Date:

Astronomy

Jan. 23, 2014 Rise Set
Actual Time 7:35 AM CST 5:23 PM CST
Civil Twilight 7:05 AM CST 5:53 PM CST
Nautical Twilight 6:32 AM CST 6:26 PM CST
Astronomical Twilight 5:59 AM CST 6:59 PM CST
Moon No Moon Rise 11:07 AM CST (1/23)
Length of Visible Light 10h 47m
Length of Day
9h 47m
Waning Gibbous, 55% of the Moon is Illuminated
Jan 23
Waning Gibbous
Jan 23
Last Quarter
Jan 30
New
Feb 6
First Quarter
Feb 14
Full

Hourly Weather History & Observations

Time (CST) Temp. Windchill Dew Point Humidity Pressure Visibility Wind Dir Wind Speed Gust Speed Precip Events Conditions
12:15 AM -2.2 °F -22.9 °F -13.0 °F 60% 30.50 in 10.0 mi NNW 16.1 mph 27.6 mph N/A   Overcast
12:35 AM -2.2 °F -23.5 °F -13.0 °F 60% 30.50 in 10.0 mi NNW 17.3 mph 24.2 mph N/A   Mostly Cloudy
12:55 AM -4.0 °F -24.5 °F -13.0 °F 65% 30.51 in 10.0 mi NNW 15.0 mph - N/A   Mostly Cloudy
1:15 AM -4.0 °F -23.7 °F -13.0 °F 65% 30.52 in 10.0 mi NW 13.8 mph - N/A   Mostly Cloudy
1:35 AM -4.0 °F -24.5 °F -13.0 °F 65% 30.53 in 10.0 mi NNW 15.0 mph 21.9 mph N/A   Mostly Cloudy
1:55 AM -4.0 °F -24.5 °F -13.0 °F 65% 30.54 in 10.0 mi NNW 15.0 mph - N/A   Overcast
2:15 AM -4.0 °F -23.7 °F -14.8 °F 60% 30.55 in 10.0 mi NW 13.8 mph 21.9 mph N/A   Mostly Cloudy
2:35 AM -4.0 °F -25.2 °F -14.8 °F 60% 30.55 in 10.0 mi NW 16.1 mph 21.9 mph N/A   Mostly Cloudy
2:55 AM -5.8 °F -28.2 °F -14.8 °F 65% 30.56 in 10.0 mi NNW 17.3 mph - N/A   Scattered Clouds
3:15 AM -5.8 °F -27.5 °F -14.8 °F 65% 30.57 in 10.0 mi NW 16.1 mph - N/A   Clear
3:35 AM -5.8 °F -26.8 °F -14.8 °F 65% 30.57 in 10.0 mi NNW 15.0 mph - N/A   Clear
3:55 AM -5.8 °F -28.8 °F -14.8 °F 65% 30.58 in 10.0 mi NNW 18.4 mph - N/A   Clear
4:15 AM -5.8 °F -26.0 °F -14.8 °F 65% 30.58 in 10.0 mi NW 13.8 mph 20.7 mph N/A   Clear
4:35 AM -5.8 °F -27.5 °F -14.8 °F 65% 30.59 in 10.0 mi NNW 16.1 mph - N/A   Clear
4:55 AM -5.8 °F -26.0 °F -14.8 °F 65% 30.61 in 10.0 mi NW 13.8 mph 20.7 mph N/A   Clear
5:15 AM -5.8 °F -27.5 °F -14.8 °F 65% 30.62 in 10.0 mi NW 16.1 mph - N/A   Clear
5:35 AM -5.8 °F -27.5 °F -14.8 °F 65% 30.63 in 10.0 mi NW 16.1 mph 23.0 mph N/A   Clear
5:55 AM -7.6 °F -29.8 °F -14.8 °F 71% 30.64 in 10.0 mi NW 16.1 mph - N/A   Clear
6:15 AM -7.6 °F -28.3 °F -14.8 °F 71% 30.65 in 10.0 mi NW 13.8 mph 19.6 mph N/A   Clear
6:35 AM -7.6 °F -29.8 °F -14.8 °F 71% 30.66 in 10.0 mi NW 16.1 mph - N/A   Clear
6:55 AM -7.6 °F -28.3 °F -14.8 °F 71% 30.66 in 10.0 mi NW 13.8 mph 20.7 mph N/A   Clear
7:15 AM -7.6 °F -29.1 °F -16.6 °F 65% 30.67 in 10.0 mi NNW 15.0 mph 21.9 mph N/A   Clear
7:35 AM -7.6 °F -29.8 °F -16.6 °F 65% 30.67 in 10.0 mi NW 16.1 mph 23.0 mph N/A   Clear
7:55 AM -7.6 °F -29.8 °F -16.6 °F 65% 30.68 in 10.0 mi NW 16.1 mph - N/A   Clear
8:15 AM -7.6 °F -30.5 °F -14.8 °F 71% 30.69 in 10.0 mi NW 17.3 mph - N/A   Clear
8:35 AM -5.8 °F -27.5 °F -14.8 °F 65% 30.69 in 10.0 mi NW 16.1 mph 23.0 mph N/A   Clear
8:55 AM -5.8 °F -28.8 °F -14.8 °F 65% 30.71 in 10.0 mi NW 18.4 mph - N/A   Clear
9:15 AM -4.0 °F -25.2 °F -14.8 °F 60% 30.71 in 10.0 mi NW 16.1 mph - N/A   Clear
9:35 AM -4.0 °F -25.2 °F -13.0 °F 65% 30.72 in 10.0 mi NNW 16.1 mph - N/A   Clear
9:55 AM -2.2 °F -23.5 °F -13.0 °F 60% 30.73 in 10.0 mi NNW 17.3 mph - N/A   Clear
10:15 AM -2.2 °F -22.9 °F -13.0 °F 60% 30.74 in 10.0 mi NNW 16.1 mph - N/A   Clear
10:35 AM -0.4 °F -19.2 °F -13.0 °F 55% 30.75 in 10.0 mi NNW 13.8 mph - N/A   Clear
10:55 AM -0.4 °F -19.9 °F -11.2 °F 60% 30.75 in 10.0 mi NW 15.0 mph 21.9 mph N/A   Clear
11:15 AM 1.4 °F -17.6 °F -11.2 °F 56% 30.75 in 10.0 mi NW 15.0 mph 21.9 mph N/A   Clear
11:35 AM 1.4 °F -16.9 °F -11.2 °F 56% 30.74 in 10.0 mi NW 13.8 mph - N/A   Clear
11:55 AM 3.2 °F -15.3 °F -11.2 °F 51% 30.74 in 10.0 mi NW 15.0 mph 20.7 mph N/A   Clear
12:15 PM 5.0 °F -13.6 °F -9.4 °F 52% 30.73 in 10.0 mi NW 16.1 mph - N/A   Clear
12:35 PM 5.0 °F -13.6 °F -9.4 °F 52% 30.72 in 10.0 mi NW 16.1 mph - N/A   Clear
12:55 PM 5.0 °F -11.6 °F -11.2 °F 47% 30.71 in 10.0 mi NW 12.7 mph 20.7 mph N/A   Clear
1:15 PM 6.8 °F -8.6 °F -9.4 °F 48% 30.70 in 10.0 mi WNW 11.5 mph 18.4 mph N/A   Clear
1:35 PM 6.8 °F -11.3 °F -9.4 °F 48% 30.69 in 10.0 mi NW 16.1 mph 23.0 mph N/A   Clear
1:55 PM 8.6 °F -8.3 °F -9.4 °F 44% 30.69 in 10.0 mi NW 15.0 mph - N/A   Clear
2:15 PM 8.6 °F -7.7 °F -9.4 °F 44% 30.68 in 10.0 mi NW 13.8 mph - N/A   Clear
2:35 PM 10.4 °F -4.8 °F -7.6 °F 44% 30.68 in 10.0 mi NW 12.7 mph 20.7 mph N/A   Clear
2:55 PM 10.4 °F -6.6 °F -9.4 °F 41% 30.68 in 10.0 mi WNW 16.1 mph 21.9 mph N/A   Clear
3:15 PM 10.4 °F -6.0 °F -7.6 °F 44% 30.68 in 10.0 mi NW 15.0 mph 23.0 mph N/A   Clear
3:35 PM 10.4 °F -4.8 °F -9.4 °F 41% 30.68 in 10.0 mi NW 12.7 mph 19.6 mph N/A   Clear
3:55 PM 10.4 °F -4.8 °F -9.4 °F 41% 30.68 in 10.0 mi NW 12.7 mph 19.6 mph N/A   Clear
4:15 PM 10.4 °F -5.4 °F -7.6 °F 44% 30.68 in 10.0 mi WNW 13.8 mph - N/A   Clear
4:35 PM 10.4 °F -5.4 °F -7.6 °F 44% 30.68 in 10.0 mi NW 13.8 mph - N/A   Clear
4:55 PM 10.4 °F -4.8 °F -9.4 °F 41% 30.68 in 10.0 mi WNW 12.7 mph - N/A   Clear
5:15 PM 8.6 °F -4.7 °F -9.4 °F 44% 30.67 in 10.0 mi WNW 9.2 mph - N/A   Clear
5:35 PM 6.8 °F -3.5 °F -9.4 °F 48% 30.67 in 10.0 mi West 5.8 mph - N/A   Clear
5:55 PM 5.0 °F -6.9 °F -9.4 °F 52% 30.67 in 10.0 mi WSW 6.9 mph - N/A   Clear
6:15 PM 5.0 °F -9.1 °F -9.4 °F 52% 30.65 in 10.0 mi West 9.2 mph - N/A   Clear
6:35 PM 3.2 °F -9.1 °F -9.4 °F 56% 30.66 in 10.0 mi WSW 6.9 mph - N/A   Clear
6:55 PM 3.2 °F -9.1 °F -9.4 °F 56% 30.65 in 10.0 mi West 6.9 mph - N/A   Clear
7:15 PM 3.2 °F -7.8 °F -9.4 °F 56% 30.65 in 10.0 mi WSW 5.8 mph - N/A   Clear
7:35 PM 1.4 °F -11.3 °F -11.2 °F 56% 30.65 in 10.0 mi WSW 6.9 mph - N/A   Clear
7:55 PM 1.4 °F -12.5 °F -11.2 °F 56% 30.63 in 10.0 mi WSW 8.1 mph - N/A   Clear
8:15 PM 1.4 °F -11.3 °F -9.4 °F 61% 30.62 in 10.0 mi WSW 6.9 mph - N/A   Clear
8:35 PM 1.4 °F -9.9 °F -9.4 °F 61% 30.62 in 10.0 mi WSW 5.8 mph - N/A   Clear
8:55 PM 1.4 °F -11.3 °F -11.2 °F 56% 30.60 in 10.0 mi WSW 6.9 mph - N/A   Clear
9:15 PM 1.4 °F -9.9 °F -9.4 °F 61% 30.59 in 10.0 mi SW 5.8 mph - N/A   Clear
9:35 PM 1.4 °F -13.5 °F -9.4 °F 61% 30.57 in 10.0 mi SW 9.2 mph - N/A   Clear
9:55 PM 1.4 °F -12.5 °F -9.4 °F 61% 30.56 in 10.0 mi SW 8.1 mph - N/A   Clear
10:15 PM 1.4 °F -14.5 °F -9.4 °F 61% 30.54 in 10.0 mi SW 10.4 mph - N/A   Clear
10:35 PM 3.2 °F -12.2 °F -9.4 °F 56% 30.53 in 10.0 mi SW 10.4 mph - N/A   Clear
10:55 PM 3.2 °F -13.1 °F -7.6 °F 61% 30.52 in 10.0 mi SW 11.5 mph - N/A   Clear
11:15 PM 5.0 °F -12.3 °F -7.6 °F 56% 30.51 in 10.0 mi SSW 13.8 mph - N/A   Clear
11:35 PM 5.0 °F -10.0 °F -7.6 °F 56% 30.50 in 10.0 mi SSW 10.4 mph - N/A   Clear
11:55 PM 5.0 °F -12.3 °F -7.6 °F 56% 30.49 in - SSW 13.8 mph 19.6 mph N/A   Clear